Flag for Senegal Weather past 2 weeks in Dakar, Senegal

Now
81 °F

Passing clouds.


Feels Like: 86 °F
Forecast: 79 / 84 °F
Wind: 15 mph from South

Location: Dakar / Yoff

Current Time: Aug 31, 2015 at 6:50:46 AM

Latest Report: Aug 31, 2015 at 6:00 AM


Visibility: 5 mi

Pressure: 29.89 "Hg

Humidity: 84%

Dew point: 75 °F

Location of DakarLocation

Historic Weather in Dakar — Graph

°F

Dakar temperature yesterday

Maximum temperature yesterday: 86 °F (at 1:30 PM)
Minimum temperature yesterday: 79 °F (at 3:30 AM)
Average temperature yesterday: 82 °F

Past Weeks' High & Low Weather Summary

 TemperatureHumidityPressure
High90 °F (Aug 27, 12:00 PM)100% (Aug 18, 7:30 AM)30.01 "Hg (Aug 18, 7:30 AM)
Low75 °F (Aug 17, 9:30 AM)62% (Aug 17, 4:00 PM)29.77 "Hg (Aug 20, 5:30 PM)
Average82 °F84%29.87 "Hg
* Reported Aug 16 5:00 AM — Aug 31 5:30 AM, Dakar, Weather by CustomWeather, © 2015

Note: Actual official high and low records may vary slightly from our data, if they occured in-between our weather recording intervals... More about our weather records

Advertising

Dakar weather history for previous 24 hours

 ConditionsComfort  
Time TempWeatherWind HumidityBarometerVisibility
5:30 AM
Mon, Aug 31
81 °FLight rain. Passing clouds.12 mph84%29.89 "Hg5 mi
5:00 AM81 °FPartly cloudy.12 mph84%29.92 "HgN/A
4:30 AM81 °FPartly cloudy.12 mph84%29.92 "HgN/A
4:00 AM79 °FPartly cloudy.13 mph89%29.92 "HgN/A
3:30 AM81 °FPartly cloudy.10 mph84%29.92 "HgN/A
3:00 AM81 °FPartly cloudy.12 mph84%29.92 "HgN/A
2:30 AM81 °FPartly cloudy.10 mph84%29.92 "HgN/A
2:00 AM79 °FLight rain. Passing clouds.12 mph89%29.95 "Hg5 mi
1:30 AM79 °FLight rain. Passing clouds.8 mph89%29.95 "Hg5 mi
1:00 AM81 °FLight rain. Partly cloudy.10 mph84%29.98 "Hg5 mi
12:30 AM81 °FLight rain. Partly cloudy.10 mph84%29.98 "Hg5 mi
12:00 AM81 °FPartly cloudy.9 mph84%29.98 "Hg5 mi
11:30 PM
Sun, Aug 30
81 °FPartly cloudy.9 mph84%29.98 "Hg5 mi
11:00 PM81 °FLight rain. Partly cloudy.12 mph84%29.98 "Hg5 mi
10:30 PM81 °FLight rain. Partly cloudy.14 mph84%29.98 "Hg5 mi
10:00 PM81 °FLight rain. Partly cloudy.13 mph84%29.95 "Hg4 mi
9:30 PM81 °FWarm.N/A84%29.95 "HgN/A
9:00 PM81 °FLight rain. Partly cloudy.15 mph89%29.95 "Hg5 mi
8:30 PM81 °FLight rain. Partly cloudy.13 mph84%29.92 "Hg6 mi
7:30 PM82 °FLight rain. Partly cloudy.15 mph84%29.92 "Hg4 mi
7:00 PM82 °FBroken clouds.15 mph79%29.89 "Hg6 mi
6:30 PM82 °FBroken clouds.16 mph79%29.89 "Hg6 mi
6:00 PM84 °FBroken clouds.16 mph79%29.89 "Hg6 mi
5:30 PM84 °FBroken clouds.18 mph74%29.86 "Hg6 mi
5:00 PM84 °FBroken clouds.18 mph79%29.86 "Hg6 mi
4:30 PM84 °FThunderstorms. Broken clouds.20 mph74%29.89 "Hg6 mi
4:00 PM86 °FThunderstorms. Broken clouds.16 mph75%29.86 "Hg4 mi
3:30 PM84 °FThunderstorms. Broken clouds.18 mph79%29.86 "Hg4 mi
3:01 PM82 °FThunderstorms. Broken clouds.17 mph84%29.89 "Hg4 mi
2:30 PM86 °FBroken clouds.17 mph75%29.89 "HgN/A
2:00 PM84 °FLight rain. Broken clouds.17 mph84%29.89 "Hg5 mi
1:30 PM86 °FLight rain. Broken clouds.20 mph75%29.89 "Hg5 mi
1:00 PM84 °FBroken clouds.18 mph79%29.92 "HgN/A
12:30 PM84 °FBroken clouds.17 mph74%29.92 "HgN/A
12:00 PM84 °FBroken clouds.16 mph74%29.92 "HgN/A
11:30 AM82 °FLight rain. Broken clouds.15 mph84%29.92 "HgN/A
11:00 AM84 °FBroken clouds.16 mph79%29.92 "HgN/A
10:30 AM82 °FScattered clouds.14 mph79%29.92 "HgN/A
10:00 AM82 °FBroken clouds.14 mph84%29.89 "HgN/A
9:30 AM82 °FBroken clouds.15 mph79%29.86 "HgN/A
9:00 AM81 °FBroken clouds.13 mph84%29.86 "HgN/A
8:30 AM81 °FScattered clouds.12 mph84%29.86 "HgN/A
8:00 AM81 °FScattered clouds.8 mph89%29.86 "HgN/A
7:30 AM81 °FScattered clouds.8 mph89%29.83 "HgN/A
7:00 AM81 °FScattered clouds.8 mph89%29.83 "HgN/A
6:30 AM81 °FPassing clouds.8 mph84%29.83 "HgN/A
6:00 AM81 °FPassing clouds.8 mph89%29.83 "HgN/A
Weather by CustomWeather, © 2015

See weather overviewHow to use our weather pages